Location: Vancouver
(49.2827°N, 123.1207°W)
Time: 04:57:21
(UTC-07:00)

ISS - Pass Details

Date: 26 September 2023
Orbit: 413 x 425 km, 51.6° (Epoch: 05 October)

Event Time Altitude Azimuth Distance (km) Brightness Sun altitude
Rises 20:12:05 0° 284° (WNW) 2,365 2.2 -12.2°
Reaches altitude 10° 20:14:46 10° 261° (W) 1,487 0.2 -12.6°
Maximum altitude 20:16:50 16° 222° (SW) 1,183 -1.1 -13.0°
Drops below altitude 10° 20:18:55 10° 183° (S) 1,479 -1.1 -13.3°
Enters shadow 20:20:18 - 168° (SSE) 1,899 -0.7 -13.5°
